Location: Chillicothe
(39.7950°N, 93.5520°W)
Time: 00:00:59
(UTC-06:00)

BEESAT - Pass Details

Date: 19 November 2019
Orbit: 700 x 709 km, 98.6° (Epoch: 09 December)

Event Time Altitude Azimuth Distance (km) Brightness Sun altitude
Rises 17:55:54 0° 11° (N) 3,096 ? -11.7°
Reaches altitude 10° 17:58:09 10° 9° (N) 2,175 ? -12.1°
Maximum altitude 18:02:54 74° 285° (WNW) 736 ? -13.0°
Drops below altitude 10° 18:07:38 10° 202° (SSW) 2,164 ? -13.9°
Sets 18:09:52 0° 200° (SSW) 3,080 ? -14.3°
